Location: Melque
(41.0517°N, 4.4694°W)
Time: 19:24:33
(UTC+00:00)

Meteor 1-20 Rocket - Pass Details

Date: 12 March 2026
Orbit: 817 x 891 km, 81.2° (Epoch: 14 April)

Event Time Altitude Azimuth Distance (km) Brightness Sun altitude
Rises 04:19:38 0° 7° (N) 3,466 7.7 -25.9°
Reaches altitude 10° 04:23:17 10° 30° (NNE) 2,507 7.3 -25.3°
Maximum altitude 04:26:26 15° 64° (ENE) 2,154 7.2 -24.7°
Drops below altitude 10° 04:29:32 10° 98° (E) 2,471 7.5 -24.2°
Sets 04:33:04 0° 121° (ESE) 3,385 7.9 -23.5°
